Year,Month,Day,Hour,Minute,Value (Times are PST for temperature in C)
2021,06,27,00,00,21.60
2021,06,27,00,01,21.60
2021,06,27,00,02,21.60
2021,06,27,00,03,21.60
2021,06,27,00,04,21.50
2021,06,27,00,05,21.50
2021,06,27,00,06,21.50
2021,06,27,00,07,21.40
2021,06,27,00,08,21.40
2021,06,27,00,09,21.40
2021,06,27,00,10,21.40
2021,06,27,00,11,21.40
2021,06,27,00,12,21.30
2021,06,27,00,13,21.30
2021,06,27,00,14,21.30
2021,06,27,00,15,21.30
2021,06,27,00,16,21.30
2021,06,27,00,17,21.30
2021,06,27,00,18,21.30
2021,06,27,00,19,21.20
2021,06,27,00,20,21.20
2021,06,27,00,21,21.20
2021,06,27,00,22,21.20
2021,06,27,00,23,21.20
2021,06,27,00,24,21.20
2021,06,27,00,25,21.20
2021,06,27,00,26,21.20
2021,06,27,00,27,21.20
2021,06,27,00,28,21.10
2021,06,27,00,29,21.10
2021,06,27,00,30,21.10
2021,06,27,00,31,21.10
2021,06,27,00,32,21.10
2021,06,27,00,33,21.10
2021,06,27,00,34,21.10
2021,06,27,00,35,21.20
2021,06,27,00,36,21.20
2021,06,27,00,37,21.20
2021,06,27,00,38,21.20
2021,06,27,00,39,21.20
2021,06,27,00,40,21.20
2021,06,27,00,41,21.20
2021,06,27,00,42,21.20
2021,06,27,00,43,21.20
2021,06,27,00,44,21.20
2021,06,27,00,45,21.20
2021,06,27,00,46,21.20
2021,06,27,00,47,21.10
2021,06,27,00,48,21.10
2021,06,27,00,49,21.10
2021,06,27,00,50,21.10
2021,06,27,00,51,21.20
2021,06,27,00,52,21.20
2021,06,27,00,53,21.20
2021,06,27,00,54,21.20
2021,06,27,00,55,21.20
2021,06,27,00,56,21.20
2021,06,27,00,57,21.20
2021,06,27,00,58,21.30
2021,06,27,00,59,21.30
2021,06,27,01,00,21.20
2021,06,27,01,01,21.20
2021,06,27,01,02,21.20
2021,06,27,01,03,21.20
2021,06,27,01,04,21.10
2021,06,27,01,05,21.10
2021,06,27,01,06,21.00
2021,06,27,01,07,20.90
2021,06,27,01,08,20.90
2021,06,27,01,09,20.80
2021,06,27,01,10,20.80
2021,06,27,01,11,20.90
2021,06,27,01,12,20.90
2021,06,27,01,13,20.90
2021,06,27,01,14,20.90
2021,06,27,01,15,20.90
2021,06,27,01,16,20.90
2021,06,27,01,17,20.90
2021,06,27,01,18,20.90
2021,06,27,01,19,20.90
2021,06,27,01,20,20.90
2021,06,27,01,21,20.80
2021,06,27,01,22,20.80
2021,06,27,01,23,20.80
2021,06,27,01,24,20.80
2021,06,27,01,25,20.80
2021,06,27,01,26,20.80
2021,06,27,01,27,20.80
2021,06,27,01,28,20.80
2021,06,27,01,29,20.80
2021,06,27,01,30,20.80
2021,06,27,01,31,20.80
2021,06,27,01,32,20.80
2021,06,27,01,33,20.80
2021,06,27,01,34,20.80
2021,06,27,01,35,20.80
2021,06,27,01,36,20.80
2021,06,27,01,37,20.70
2021,06,27,01,38,20.70
2021,06,27,01,39,20.70
2021,06,27,01,40,20.70
2021,06,27,01,41,20.70
2021,06,27,01,42,20.70
2021,06,27,01,43,20.70
2021,06,27,01,44,20.70
2021,06,27,01,45,20.70
2021,06,27,01,46,20.70
2021,06,27,01,47,20.70
2021,06,27,01,48,20.70
2021,06,27,01,49,20.70
2021,06,27,01,50,20.70
2021,06,27,01,51,20.70
2021,06,27,01,52,20.70
2021,06,27,01,53,20.70
2021,06,27,01,54,20.80
2021,06,27,01,55,20.80
2021,06,27,01,56,20.80
2021,06,27,01,57,20.80
2021,06,27,01,58,20.80
2021,06,27,01,59,20.80
2021,06,27,02,00,20.80
2021,06,27,02,01,20.80
2021,06,27,02,02,20.80
2021,06,27,02,03,20.80
2021,06,27,02,04,20.80
2021,06,27,02,05,20.80
2021,06,27,02,06,20.80
2021,06,27,02,07,20.80
2021,06,27,02,08,20.80
2021,06,27,02,09,20.80
2021,06,27,02,10,20.80
2021,06,27,02,11,20.80
2021,06,27,02,12,20.80
2021,06,27,02,13,20.80
2021,06,27,02,14,20.80
2021,06,27,02,15,20.80
2021,06,27,02,16,20.80
2021,06,27,02,17,20.80
2021,06,27,02,18,20.70
2021,06,27,02,19,20.70
2021,06,27,02,20,20.70
2021,06,27,02,21,20.80
2021,06,27,02,22,20.70
2021,06,27,02,23,20.70
2021,06,27,02,24,20.70
2021,06,27,02,25,20.70
2021,06,27,02,26,20.70
2021,06,27,02,27,20.70
2021,06,27,02,28,20.70
2021,06,27,02,29,20.60
2021,06,27,02,30,20.60
2021,06,27,02,31,20.50
2021,06,27,02,32,20.50
2021,06,27,02,33,20.50
2021,06,27,02,34,20.50
2021,06,27,02,35,20.40
2021,06,27,02,36,20.40
2021,06,27,02,37,20.30
2021,06,27,02,38,20.30
2021,06,27,02,39,20.30
2021,06,27,02,40,20.30
2021,06,27,02,41,20.20
2021,06,27,02,42,20.20
2021,06,27,02,43,20.20
2021,06,27,02,44,20.20
2021,06,27,02,45,20.10
2021,06,27,02,46,20.10
2021,06,27,02,47,20.00
2021,06,27,02,48,20.00
2021,06,27,02,49,19.90
2021,06,27,02,50,19.90
2021,06,27,02,51,19.90
2021,06,27,02,52,20.00
2021,06,27,02,53,20.10
2021,06,27,02,54,20.10
2021,06,27,02,55,20.10
2021,06,27,02,56,20.10
2021,06,27,02,57,20.20
2021,06,27,02,58,20.20
2021,06,27,02,59,20.20
2021,06,27,03,00,20.30
2021,06,27,03,01,20.30
2021,06,27,03,02,20.30
2021,06,27,03,03,20.30
2021,06,27,03,04,20.30
2021,06,27,03,05,20.30
2021,06,27,03,06,20.30
2021,06,27,03,07,20.30
2021,06,27,03,08,20.30
2021,06,27,03,09,20.30
2021,06,27,03,10,20.30
2021,06,27,03,11,20.30
2021,06,27,03,12,20.30
2021,06,27,03,13,20.30
2021,06,27,03,14,20.30
2021,06,27,03,15,20.30
2021,06,27,03,16,20.30
2021,06,27,03,17,20.30
2021,06,27,03,18,20.30
2021,06,27,03,19,20.40
2021,06,27,03,20,20.40
2021,06,27,03,21,20.40
2021,06,27,03,22,20.40
2021,06,27,03,23,20.40
2021,06,27,03,24,20.40
2021,06,27,03,25,20.40
2021,06,27,03,26,20.40
2021,06,27,03,27,20.30
2021,06,27,03,28,20.30
2021,06,27,03,29,20.30
2021,06,27,03,30,20.30
2021,06,27,03,31,20.30
2021,06,27,03,32,20.30
2021,06,27,03,33,20.30
2021,06,27,03,34,20.30
2021,06,27,03,35,20.30
2021,06,27,03,36,20.20
2021,06,27,03,37,20.20
2021,06,27,03,38,20.20
2021,06,27,03,39,20.20
2021,06,27,03,40,20.10
2021,06,27,03,41,20.10
2021,06,27,03,42,20.10
2021,06,27,03,43,20.10
2021,06,27,03,44,20.10
2021,06,27,03,45,20.10
2021,06,27,03,46,20.10
2021,06,27,03,47,20.10
2021,06,27,03,48,20.10
2021,06,27,03,49,20.00
2021,06,27,03,50,20.00
2021,06,27,03,51,20.00
2021,06,27,03,52,20.00
2021,06,27,03,53,20.00
2021,06,27,03,54,20.00
2021,06,27,03,55,20.00
2021,06,27,03,56,20.00
2021,06,27,03,57,20.00
2021,06,27,03,58,20.10
2021,06,27,03,59,20.10
2021,06,27,04,00,20.10
2021,06,27,04,01,20.10
2021,06,27,04,02,20.10
2021,06,27,04,03,20.10
2021,06,27,04,04,20.10
2021,06,27,04,05,20.10
2021,06,27,04,06,20.10
2021,06,27,04,07,20.00
2021,06,27,04,08,20.00
2021,06,27,04,09,19.90
2021,06,27,04,10,19.90
2021,06,27,04,11,19.90
2021,06,27,04,12,19.90
2021,06,27,04,13,19.90
2021,06,27,04,14,19.90
2021,06,27,04,15,19.90
2021,06,27,04,16,19.90
2021,06,27,04,17,19.90
2021,06,27,04,18,19.90
2021,06,27,04,19,19.90
2021,06,27,04,20,20.00
2021,06,27,04,21,20.00
2021,06,27,04,22,20.00
2021,06,27,04,23,20.00
2021,06,27,04,24,19.90
2021,06,27,04,25,19.90
2021,06,27,04,26,19.90
2021,06,27,04,27,19.90
2021,06,27,04,28,19.90
2021,06,27,04,29,19.90
2021,06,27,04,30,19.90
2021,06,27,04,31,19.90
2021,06,27,04,32,19.80
2021,06,27,04,33,19.80
2021,06,27,04,34,19.80
2021,06,27,04,35,19.80
2021,06,27,04,36,19.70
2021,06,27,04,37,19.70
2021,06,27,04,38,19.70
2021,06,27,04,39,19.70
2021,06,27,04,40,19.60
2021,06,27,04,41,19.60
2021,06,27,04,42,19.60
2021,06,27,04,43,19.60
2021,06,27,04,44,19.60
2021,06,27,04,45,19.60
2021,06,27,04,46,19.60
2021,06,27,04,47,19.70
2021,06,27,04,48,19.70
2021,06,27,04,49,19.70
2021,06,27,04,50,19.70
2021,06,27,04,51,19.70
2021,06,27,04,52,19.60
2021,06,27,04,53,19.60
2021,06,27,04,54,19.60
2021,06,27,04,55,19.60
2021,06,27,04,56,19.60
2021,06,27,04,57,19.50
2021,06,27,04,58,19.50
2021,06,27,04,59,19.40
2021,06,27,05,00,19.40
2021,06,27,05,01,19.40
2021,06,27,05,02,19.40
2021,06,27,05,03,19.30
2021,06,27,05,04,19.30
2021,06,27,05,05,19.30
2021,06,27,05,06,19.30
2021,06,27,05,07,19.30
2021,06,27,05,08,19.20
2021,06,27,05,09,19.20
2021,06,27,05,10,19.20
2021,06,27,05,11,19.20
2021,06,27,05,12,19.10
2021,06,27,05,13,19.10
2021,06,27,05,14,19.10
2021,06,27,05,15,19.10
2021,06,27,05,16,19.10
2021,06,27,05,17,19.20
2021,06,27,05,18,19.20
2021,06,27,05,19,19.20
2021,06,27,05,20,19.10
2021,06,27,05,21,19.10
2021,06,27,05,22,19.10
2021,06,27,05,23,19.00
2021,06,27,05,24,19.00
2021,06,27,05,25,19.00
2021,06,27,05,26,19.00
2021,06,27,05,27,18.90
2021,06,27,05,28,18.90
2021,06,27,05,29,18.90
2021,06,27,05,30,18.90
2021,06,27,05,31,18.90
2021,06,27,05,32,18.90
2021,06,27,05,33,18.90
2021,06,27,05,34,18.90
2021,06,27,05,35,18.90
2021,06,27,05,36,18.90
2021,06,27,05,37,18.90
2021,06,27,05,38,19.00
2021,06,27,05,39,19.00
2021,06,27,05,40,19.00
2021,06,27,05,41,19.00
2021,06,27,05,42,19.00
2021,06,27,05,43,19.10
2021,06,27,05,44,19.10
2021,06,27,05,45,19.10
2021,06,27,05,46,19.10
2021,06,27,05,47,19.10
2021,06,27,05,48,19.20
2021,06,27,05,49,19.20
2021,06,27,05,50,19.20
2021,06,27,05,51,19.20
2021,06,27,05,52,19.20
2021,06,27,05,53,19.20
2021,06,27,05,54,19.20
2021,06,27,05,55,19.20
2021,06,27,05,56,19.20
2021,06,27,05,57,19.20
2021,06,27,05,58,19.20
2021,06,27,05,59,19.20
2021,06,27,06,00,19.20
2021,06,27,06,01,19.20
2021,06,27,06,02,19.20
2021,06,27,06,03,19.30
2021,06,27,06,04,19.30
2021,06,27,06,05,19.30
2021,06,27,06,06,19.30
2021,06,27,06,07,19.30
2021,06,27,06,08,19.30
2021,06,27,06,09,19.40
2021,06,27,06,10,19.40
2021,06,27,06,11,19.40
2021,06,27,06,12,19.40
2021,06,27,06,13,19.40
2021,06,27,06,14,19.40
2021,06,27,06,15,19.40
2021,06,27,06,16,19.40
2021,06,27,06,17,19.50
2021,06,27,06,18,19.50
2021,06,27,06,19,19.50
2021,06,27,06,20,19.50
2021,06,27,06,21,19.60
2021,06,27,06,22,19.60
2021,06,27,06,23,19.60
2021,06,27,06,24,19.60
2021,06,27,06,25,19.70
2021,06,27,06,26,19.70
2021,06,27,06,27,19.70
2021,06,27,06,28,19.80
2021,06,27,06,29,19.80
2021,06,27,06,30,19.80
2021,06,27,06,31,19.90
2021,06,27,06,32,19.90
2021,06,27,06,33,20.00
2021,06,27,06,34,20.00
2021,06,27,06,35,20.10
2021,06,27,06,36,20.10
2021,06,27,06,37,20.10
2021,06,27,06,38,20.10
2021,06,27,06,39,20.20
2021,06,27,06,40,20.40
2021,06,27,06,41,20.50
2021,06,27,06,42,20.60
2021,06,27,06,43,20.70
2021,06,27,06,44,20.80
2021,06,27,06,45,20.90
2021,06,27,06,46,20.90
2021,06,27,06,47,21.00
2021,06,27,06,48,21.10
2021,06,27,06,49,21.20
2021,06,27,06,50,21.20
2021,06,27,06,51,21.30
2021,06,27,06,52,21.40
2021,06,27,06,53,21.50
2021,06,27,06,54,21.50
2021,06,27,06,55,21.60
2021,06,27,06,56,21.60
2021,06,27,06,57,21.70
2021,06,27,06,58,21.80
2021,06,27,06,59,21.80
2021,06,27,07,00,21.90
2021,06,27,07,01,21.90
2021,06,27,07,02,22.00
2021,06,27,07,03,22.00
2021,06,27,07,04,22.10
2021,06,27,07,05,22.10
2021,06,27,07,06,22.10
2021,06,27,07,07,22.20
2021,06,27,07,08,22.20
2021,06,27,07,09,22.20
2021,06,27,07,10,22.30
2021,06,27,07,11,22.30
2021,06,27,07,12,22.30
2021,06,27,07,13,22.40
2021,06,27,07,14,22.40
2021,06,27,07,15,22.40
2021,06,27,07,16,22.50
2021,06,27,07,17,22.50
2021,06,27,07,18,22.60
2021,06,27,07,19,22.70
2021,06,27,07,20,22.80
2021,06,27,07,21,22.90
2021,06,27,07,22,23.00
2021,06,27,07,23,23.00
2021,06,27,07,24,23.10
2021,06,27,07,25,23.20
2021,06,27,07,26,23.30
2021,06,27,07,27,23.30
2021,06,27,07,28,23.40
2021,06,27,07,29,23.40
2021,06,27,07,30,23.50
2021,06,27,07,31,23.50
2021,06,27,07,32,23.60
2021,06,27,07,33,23.60
2021,06,27,07,34,23.60
2021,06,27,07,35,23.60
2021,06,27,07,36,23.60
2021,06,27,07,37,23.60
2021,06,27,07,38,23.70
2021,06,27,07,39,23.70
2021,06,27,07,40,23.80
2021,06,27,07,41,23.80
2021,06,27,07,42,23.80
2021,06,27,07,43,23.90
2021,06,27,07,44,23.90
2021,06,27,07,45,24.00
2021,06,27,07,46,24.00
2021,06,27,07,47,24.10
2021,06,27,07,48,24.20
2021,06,27,07,49,24.20
2021,06,27,07,50,24.30
2021,06,27,07,51,24.40
2021,06,27,07,52,24.40
2021,06,27,07,53,24.50
2021,06,27,07,54,24.50
2021,06,27,07,55,24.60
2021,06,27,07,56,24.70
2021,06,27,07,57,24.70
2021,06,27,07,58,24.80
2021,06,27,07,59,24.90
2021,06,27,08,00,24.90
2021,06,27,08,01,25.00
2021,06,27,08,02,25.00
2021,06,27,08,03,25.10
2021,06,27,08,04,25.20
2021,06,27,08,05,25.20
2021,06,27,08,06,25.30
2021,06,27,08,07,25.40
2021,06,27,08,08,25.50
2021,06,27,08,09,25.50
2021,06,27,08,10,25.60
2021,06,27,08,11,25.70
2021,06,27,08,12,25.80
2021,06,27,08,13,25.80
2021,06,27,08,14,25.90
2021,06,27,08,15,26.00
2021,06,27,08,16,26.10
2021,06,27,08,17,26.20
2021,06,27,08,18,26.30
2021,06,27,08,19,26.30
2021,06,27,08,20,26.40
2021,06,27,08,21,26.50
2021,06,27,08,22,26.60
2021,06,27,08,23,26.70
2021,06,27,08,24,26.80
2021,06,27,08,25,26.80
2021,06,27,08,26,26.80
2021,06,27,08,27,26.80
2021,06,27,08,28,26.80
2021,06,27,08,29,26.80
2021,06,27,08,30,26.80
2021,06,27,08,31,26.80
2021,06,27,08,32,26.90
2021,06,27,08,33,26.90
2021,06,27,08,34,26.90
2021,06,27,08,35,27.00
2021,06,27,08,36,27.00
2021,06,27,08,37,27.10
2021,06,27,08,38,27.10
2021,06,27,08,39,27.10
2021,06,27,08,40,27.20
2021,06,27,08,41,27.30
2021,06,27,08,42,27.30
2021,06,27,08,43,27.30
2021,06,27,08,44,27.40
2021,06,27,08,45,27.40
2021,06,27,08,46,27.50
2021,06,27,08,47,27.60
2021,06,27,08,48,27.70
2021,06,27,08,49,27.80
2021,06,27,08,50,27.90
2021,06,27,08,51,27.90
2021,06,27,08,52,28.00
2021,06,27,08,53,28.10
2021,06,27,08,54,28.20
2021,06,27,08,55,28.20
2021,06,27,08,56,28.30
2021,06,27,08,57,28.30
2021,06,27,08,58,28.40
2021,06,27,08,59,28.50
2021,06,27,09,00,28.60
2021,06,27,09,01,28.60
2021,06,27,09,02,28.70
2021,06,27,09,03,28.80
2021,06,27,09,04,28.90
2021,06,27,09,05,28.90
2021,06,27,09,06,29.00
2021,06,27,09,07,29.10
2021,06,27,09,08,29.30
2021,06,27,09,09,29.40
2021,06,27,09,10,29.50
2021,06,27,09,11,29.50
2021,06,27,09,12,29.60
2021,06,27,09,13,29.70
2021,06,27,09,14,29.80
2021,06,27,09,15,29.90
2021,06,27,09,16,30.00
2021,06,27,09,17,30.00
2021,06,27,09,18,30.10
2021,06,27,09,19,30.20
2021,06,27,09,20,30.30
2021,06,27,09,21,30.40
2021,06,27,09,22,30.40
2021,06,27,09,23,30.50
2021,06,27,09,24,30.50
2021,06,27,09,25,30.50
2021,06,27,09,26,30.60
2021,06,27,09,27,30.50
2021,06,27,09,28,30.40
2021,06,27,09,29,30.20
2021,06,27,09,30,30.00
2021,06,27,09,31,29.80
2021,06,27,09,32,29.50
2021,06,27,09,33,29.30
2021,06,27,09,34,29.00
2021,06,27,09,35,28.80
2021,06,27,09,36,28.70
2021,06,27,09,37,28.50
2021,06,27,09,38,28.50
2021,06,27,09,39,28.40
2021,06,27,09,40,28.30
2021,06,27,09,41,28.20
2021,06,27,09,42,28.20
2021,06,27,09,43,28.20
2021,06,27,09,44,28.10
2021,06,27,09,45,28.10
2021,06,27,09,46,28.10
2021,06,27,09,47,28.10
2021,06,27,09,48,28.10
2021,06,27,09,49,28.10
2021,06,27,09,50,28.10
2021,06,27,09,51,28.10
2021,06,27,09,52,28.10
2021,06,27,09,53,28.20
2021,06,27,09,54,28.20
2021,06,27,09,55,28.20
2021,06,27,09,56,28.30
2021,06,27,09,57,28.40
2021,06,27,09,58,28.50
2021,06,27,09,59,28.60
2021,06,27,10,00,28.70
2021,06,27,10,01,28.80
2021,06,27,10,02,28.90
2021,06,27,10,03,29.00
2021,06,27,10,04,29.10
2021,06,27,10,05,29.10
2021,06,27,10,06,29.20
2021,06,27,10,07,29.20
2021,06,27,10,08,29.30
2021,06,27,10,09,29.40
2021,06,27,10,10,29.40
2021,06,27,10,11,29.50
2021,06,27,10,12,29.60
2021,06,27,10,13,29.50
2021,06,27,10,14,29.50
2021,06,27,10,15,29.40
2021,06,27,10,16,29.40
2021,06,27,10,17,29.40
2021,06,27,10,18,29.50
2021,06,27,10,19,29.60
2021,06,27,10,20,29.70
2021,06,27,10,21,29.80
2021,06,27,10,22,30.00
2021,06,27,10,23,30.10
2021,06,27,10,24,30.20
2021,06,27,10,25,30.20
2021,06,27,10,26,30.20
2021,06,27,10,27,30.10
2021,06,27,10,28,30.10
2021,06,27,10,29,30.20
2021,06,27,10,30,30.30
2021,06,27,10,31,30.40
2021,06,27,10,32,30.50
2021,06,27,10,33,30.60
2021,06,27,10,34,30.70
2021,06,27,10,35,30.90
2021,06,27,10,36,31.00
2021,06,27,10,37,31.10
2021,06,27,10,38,31.20
2021,06,27,10,39,31.30
2021,06,27,10,40,31.40
2021,06,27,10,41,31.40
2021,06,27,10,42,31.50
2021,06,27,10,43,31.60
2021,06,27,10,44,31.60
2021,06,27,10,45,31.70
2021,06,27,10,46,31.80
2021,06,27,10,47,31.90
2021,06,27,10,48,32.00
2021,06,27,10,49,32.10
2021,06,27,10,50,32.20
2021,06,27,10,51,32.30
2021,06,27,10,52,32.40
2021,06,27,10,53,32.40
2021,06,27,10,54,32.50
2021,06,27,10,55,32.60
2021,06,27,10,56,32.70
2021,06,27,10,57,32.80
2021,06,27,10,58,32.80
2021,06,27,10,59,32.80
2021,06,27,11,00,32.80
2021,06,27,11,01,32.80
2021,06,27,11,02,32.70
2021,06,27,11,03,32.50
2021,06,27,11,04,32.40
2021,06,27,11,05,32.30
2021,06,27,11,06,32.20
2021,06,27,11,07,32.10
2021,06,27,11,08,32.10
2021,06,27,11,09,32.10
2021,06,27,11,10,32.10
2021,06,27,11,11,32.10
2021,06,27,11,12,32.00
2021,06,27,11,13,31.90
2021,06,27,11,14,31.80
2021,06,27,11,15,31.80
2021,06,27,11,16,31.70
2021,06,27,11,17,31.70
2021,06,27,11,18,31.70
2021,06,27,11,19,31.60
2021,06,27,11,20,31.60
2021,06,27,11,21,31.60
2021,06,27,11,22,31.50
2021,06,27,11,23,31.40
2021,06,27,11,24,31.40
2021,06,27,11,25,31.40
2021,06,27,11,26,31.40
2021,06,27,11,27,31.40
2021,06,27,11,28,31.30
2021,06,27,11,29,31.30
2021,06,27,11,30,31.30
2021,06,27,11,31,31.40
2021,06,27,11,32,31.40
2021,06,27,11,33,31.50
2021,06,27,11,34,31.60
2021,06,27,11,35,31.70
2021,06,27,11,36,31.80
2021,06,27,11,37,31.90
2021,06,27,11,38,32.00
2021,06,27,11,39,32.00
2021,06,27,11,40,31.90
2021,06,27,11,41,31.90
2021,06,27,11,42,31.80
2021,06,27,11,43,31.80
2021,06,27,11,44,31.70
2021,06,27,11,45,31.60
2021,06,27,11,46,31.60
2021,06,27,11,47,31.60
2021,06,27,11,48,31.60
2021,06,27,11,49,31.60
2021,06,27,11,50,31.60
2021,06,27,11,51,31.60
2021,06,27,11,52,31.70
2021,06,27,11,53,31.80
2021,06,27,11,54,31.90
2021,06,27,11,55,32.10
2021,06,27,11,56,32.10
2021,06,27,11,57,32.20
2021,06,27,11,58,32.40
2021,06,27,11,59,32.50
2021,06,27,12,00,32.50
2021,06,27,12,01,32.50
2021,06,27,12,02,32.50
2021,06,27,12,03,32.50
2021,06,27,12,04,32.50
2021,06,27,12,05,32.50
2021,06,27,12,06,32.40
2021,06,27,12,07,32.40
2021,06,27,12,08,32.40
2021,06,27,12,09,32.50
2021,06,27,12,10,32.60
2021,06,27,12,11,32.60
2021,06,27,12,12,32.70
2021,06,27,12,13,32.70
2021,06,27,12,14,32.70
2021,06,27,12,15,32.70
2021,06,27,12,16,32.70
2021,06,27,12,17,32.70
2021,06,27,12,18,32.70
2021,06,27,12,19,32.70
2021,06,27,12,20,32.70
2021,06,27,12,21,32.80
2021,06,27,12,22,32.80
2021,06,27,12,23,32.90
2021,06,27,12,24,33.00
2021,06,27,12,25,33.10
2021,06,27,12,26,33.10
2021,06,27,12,27,33.20
2021,06,27,12,28,33.30
2021,06,27,12,29,33.40
2021,06,27,12,30,33.50
2021,06,27,12,31,33.70
2021,06,27,12,32,33.80
2021,06,27,12,33,33.80
2021,06,27,12,34,33.80
2021,06,27,12,35,33.80
2021,06,27,12,36,33.80
2021,06,27,12,37,33.70
2021,06,27,12,38,33.70
2021,06,27,12,39,33.50
2021,06,27,12,40,33.40
2021,06,27,12,41,33.30
2021,06,27,12,42,33.30
2021,06,27,12,43,33.40
2021,06,27,12,44,33.50
2021,06,27,12,45,33.60
2021,06,27,12,46,33.60
2021,06,27,12,47,33.70
2021,06,27,12,48,33.80
2021,06,27,12,49,33.80
2021,06,27,12,50,33.80
2021,06,27,12,51,33.80
2021,06,27,12,52,33.90
2021,06,27,12,53,33.80
2021,06,27,12,54,33.80
2021,06,27,12,55,33.80
2021,06,27,12,56,33.70
2021,06,27,12,57,33.60
2021,06,27,12,58,33.50
2021,06,27,12,59,33.40
2021,06,27,13,00,33.30
2021,06,27,13,01,33.30
2021,06,27,13,02,33.20
2021,06,27,13,03,33.20
2021,06,27,13,04,33.20
2021,06,27,13,05,33.20
2021,06,27,13,06,33.20
2021,06,27,13,07,33.20
2021,06,27,13,08,33.30
2021,06,27,13,09,33.30
2021,06,27,13,10,33.20
2021,06,27,13,11,33.00
2021,06,27,13,12,33.00
2021,06,27,13,13,32.90
2021,06,27,13,14,32.90
2021,06,27,13,15,32.90
2021,06,27,13,16,33.00
2021,06,27,13,17,33.10
2021,06,27,13,18,33.10
2021,06,27,13,19,33.20
2021,06,27,13,20,33.20
2021,06,27,13,21,33.10
2021,06,27,13,22,33.10
2021,06,27,13,23,33.00
2021,06,27,13,24,32.80
2021,06,27,13,25,32.80
2021,06,27,13,26,32.70
2021,06,27,13,27,32.60
2021,06,27,13,28,32.50
2021,06,27,13,29,32.50
2021,06,27,13,30,32.60
2021,06,27,13,31,32.50
2021,06,27,13,32,32.40
2021,06,27,13,33,32.20
2021,06,27,13,34,32.20
2021,06,27,13,35,32.30
2021,06,27,13,36,32.40
2021,06,27,13,37,32.50
2021,06,27,13,38,32.70
2021,06,27,13,39,32.80
2021,06,27,13,40,32.90
2021,06,27,13,41,32.90
2021,06,27,13,42,32.90
2021,06,27,13,43,32.90
2021,06,27,13,44,32.90
2021,06,27,13,45,32.90
2021,06,27,13,46,32.90
2021,06,27,13,47,32.90
2021,06,27,13,48,32.80
2021,06,27,13,49,32.80
2021,06,27,13,50,32.80
2021,06,27,13,51,32.80
2021,06,27,13,52,32.80
2021,06,27,13,53,32.90
2021,06,27,13,54,32.90
2021,06,27,13,55,33.00
2021,06,27,13,56,33.10
2021,06,27,13,57,33.00
2021,06,27,13,58,32.90
2021,06,27,13,59,32.90
2021,06,27,14,00,32.80
2021,06,27,14,01,32.90
2021,06,27,14,02,32.90
2021,06,27,14,03,33.00
2021,06,27,14,04,33.10
2021,06,27,14,05,33.20
2021,06,27,14,06,33.30
2021,06,27,14,07,33.50
2021,06,27,14,08,33.60
2021,06,27,14,09,33.80
2021,06,27,14,10,34.00
2021,06,27,14,11,34.20
2021,06,27,14,12,34.40
2021,06,27,14,13,34.50
2021,06,27,14,14,34.50
2021,06,27,14,15,34.40
2021,06,27,14,16,34.40
2021,06,27,14,17,34.40
2021,06,27,14,18,34.40
2021,06,27,14,19,34.50
2021,06,27,14,20,34.60
2021,06,27,14,21,34.70
2021,06,27,14,22,34.80
2021,06,27,14,23,34.80
2021,06,27,14,24,34.70
2021,06,27,14,25,34.70
2021,06,27,14,26,34.60
2021,06,27,14,27,34.50
2021,06,27,14,28,34.40
2021,06,27,14,29,34.30
2021,06,27,14,30,34.30
2021,06,27,14,31,34.30
2021,06,27,14,32,34.40
2021,06,27,14,33,34.50
2021,06,27,14,34,34.70
2021,06,27,14,35,34.80
2021,06,27,14,36,34.90
2021,06,27,14,37,35.00
2021,06,27,14,38,35.20
2021,06,27,14,39,35.40
2021,06,27,14,40,35.60
2021,06,27,14,41,35.80
2021,06,27,14,42,35.90
2021,06,27,14,43,35.90
2021,06,27,14,44,35.90
2021,06,27,14,45,35.90
2021,06,27,14,46,36.00
2021,06,27,14,47,36.10
2021,06,27,14,48,36.10
2021,06,27,14,49,36.00
2021,06,27,14,50,35.90
2021,06,27,14,51,35.90
2021,06,27,14,52,35.90
2021,06,27,14,53,35.90
2021,06,27,14,54,35.80
2021,06,27,14,55,35.80
2021,06,27,14,56,35.80
2021,06,27,14,57,35.70
2021,06,27,14,58,35.60
2021,06,27,14,59,35.50
2021,06,27,15,00,35.40
2021,06,27,15,01,35.30
2021,06,27,15,02,35.30
2021,06,27,15,03,35.20
2021,06,27,15,04,35.10
2021,06,27,15,05,35.10
2021,06,27,15,06,35.10
2021,06,27,15,07,35.20
2021,06,27,15,08,35.20
2021,06,27,15,09,35.30
2021,06,27,15,10,35.50
2021,06,27,15,11,35.60
2021,06,27,15,12,35.70
2021,06,27,15,13,35.70
2021,06,27,15,14,35.80
2021,06,27,15,15,35.90
2021,06,27,15,16,35.90
2021,06,27,15,17,36.00
2021,06,27,15,18,36.10
2021,06,27,15,19,36.20
2021,06,27,15,20,36.30
2021,06,27,15,21,36.30
2021,06,27,15,22,36.30
2021,06,27,15,23,36.40
2021,06,27,15,24,36.50
2021,06,27,15,25,36.60
2021,06,27,15,26,36.60
2021,06,27,15,27,36.50
2021,06,27,15,28,36.40
2021,06,27,15,29,36.40
2021,06,27,15,30,36.40
2021,06,27,15,31,36.40
2021,06,27,15,32,36.40
2021,06,27,15,33,36.40
2021,06,27,15,34,36.50
2021,06,27,15,35,36.50
2021,06,27,15,36,36.50
2021,06,27,15,37,36.40
2021,06,27,15,38,36.40
2021,06,27,15,39,36.50
2021,06,27,15,40,36.50
2021,06,27,15,41,36.60
2021,06,27,15,42,36.60
2021,06,27,15,43,36.50
2021,06,27,15,44,36.50
2021,06,27,15,45,36.40
2021,06,27,15,46,36.30
2021,06,27,15,47,36.20
2021,06,27,15,48,36.10
2021,06,27,15,49,36.00
2021,06,27,15,50,35.90
2021,06,27,15,51,35.70
2021,06,27,15,52,35.60
2021,06,27,15,53,35.50
2021,06,27,15,54,35.40
2021,06,27,15,55,35.40
2021,06,27,15,56,35.40
2021,06,27,15,57,35.40
2021,06,27,15,58,35.30
2021,06,27,15,59,35.20
2021,06,27,16,00,35.00
2021,06,27,16,01,34.80
2021,06,27,16,02,34.70
2021,06,27,16,03,34.60
2021,06,27,16,04,34.50
2021,06,27,16,05,34.40
2021,06,27,16,06,34.50
2021,06,27,16,07,34.50
2021,06,27,16,08,34.60
2021,06,27,16,09,34.60
2021,06,27,16,10,34.60
2021,06,27,16,11,34.60
2021,06,27,16,12,34.60
2021,06,27,16,13,34.70
2021,06,27,16,14,34.70
2021,06,27,16,15,34.80
2021,06,27,16,16,34.90
2021,06,27,16,17,35.00
2021,06,27,16,18,35.10
2021,06,27,16,19,35.20
2021,06,27,16,20,35.20
2021,06,27,16,21,35.20
2021,06,27,16,22,35.20
2021,06,27,16,23,35.10
2021,06,27,16,24,35.10
2021,06,27,16,25,35.00
2021,06,27,16,26,34.90
2021,06,27,16,27,34.80
2021,06,27,16,28,34.70
2021,06,27,16,29,34.60
2021,06,27,16,30,34.60
2021,06,27,16,31,34.50
2021,06,27,16,32,34.30
2021,06,27,16,33,34.20
2021,06,27,16,34,34.10
2021,06,27,16,35,34.10
2021,06,27,16,36,34.00
2021,06,27,16,37,33.90
2021,06,27,16,38,33.80
2021,06,27,16,39,33.70
2021,06,27,16,40,33.70
2021,06,27,16,41,33.70
2021,06,27,16,42,33.70
2021,06,27,16,43,33.70
2021,06,27,16,44,33.80
2021,06,27,16,45,33.80
2021,06,27,16,46,33.80
2021,06,27,16,47,33.90
2021,06,27,16,48,33.90
2021,06,27,16,49,33.90
2021,06,27,16,50,33.90
2021,06,27,16,51,33.90
2021,06,27,16,52,34.00
2021,06,27,16,53,34.10
2021,06,27,16,54,34.10
2021,06,27,16,55,34.20
2021,06,27,16,56,34.30
2021,06,27,16,57,34.20
2021,06,27,16,58,34.20
2021,06,27,16,59,34.10
2021,06,27,17,00,34.10
2021,06,27,17,01,34.10
2021,06,27,17,02,34.00
2021,06,27,17,03,33.90
2021,06,27,17,04,33.90
2021,06,27,17,05,33.90
2021,06,27,17,06,33.90
2021,06,27,17,07,33.90
2021,06,27,17,08,33.90
2021,06,27,17,09,33.80
2021,06,27,17,10,33.70
2021,06,27,17,11,33.70
2021,06,27,17,12,33.70
2021,06,27,17,13,33.60
2021,06,27,17,14,33.70
2021,06,27,17,15,33.70
2021,06,27,17,16,33.70
2021,06,27,17,17,33.70
2021,06,27,17,18,33.80
2021,06,27,17,19,33.90